TimeEDT,TemperatureF,Dew PointF,Humidity,Sea Level PressureIn,VisibilityMPH,Wind Direction,Wind SpeedMPH,Gust SpeedMPH,PrecipitationIn,Events,Conditions,WindDirDegrees,DateUTC
12:15 AM,32.0,28.4,87,30.09,10.0,WSW,6.9,-,N/A,,Scattered Clouds,240,2013-10-25 04:15:00
12:35 AM,33.8,28.4,81,30.10,10.0,WSW,8.1,-,N/A,,Mostly Cloudy,240,2013-10-25 04:35:00
12:55 AM,33.8,28.4,81,30.10,10.0,WSW,10.4,-,N/A,,Overcast,240,2013-10-25 04:55:00
1:15 AM,33.8,30.2,87,30.10,10.0,WSW,10.4,-,N/A,,Overcast,250,2013-10-25 05:15:00
1:35 AM,33.8,30.2,87,30.11,10.0,West,11.5,-,N/A,,Overcast,260,2013-10-25 05:35:00
1:55 AM,33.8,30.2,87,30.11,10.0,WSW,9.2,-,N/A,,Overcast,250,2013-10-25 05:55:00
2:15 AM,33.8,30.2,87,30.11,10.0,West,10.4,-,N/A,,Overcast,260,2013-10-25 06:15:00
2:35 AM,33.8,30.2,87,30.11,10.0,WSW,9.2,-,N/A,,Overcast,250,2013-10-25 06:35:00
2:55 AM,35.6,30.2,81,30.12,10.0,West,10.4,-,N/A,,Overcast,260,2013-10-25 06:55:00
3:15 AM,35.6,30.2,81,30.12,10.0,WSW,8.1,-,N/A,,Overcast,250,2013-10-25 07:15:00
3:35 AM,35.6,30.2,81,30.12,10.0,WSW,9.2,-,N/A,,Overcast,250,2013-10-25 07:35:00
3:55 AM,35.6,30.2,81,30.12,10.0,WSW,10.4,-,N/A,,Overcast,250,2013-10-25 07:55:00
4:15 AM,35.6,30.2,81,30.13,10.0,WSW,12.7,-,N/A,,Overcast,250,2013-10-25 08:15:00
4:35 AM,35.6,30.2,81,30.13,10.0,WSW,10.4,-,N/A,,Overcast,250,2013-10-25 08:35:00
4:55 AM,35.6,30.2,81,30.14,10.0,WSW,10.4,-,N/A,,Overcast,250,2013-10-25 08:55:00
5:15 AM,35.6,30.2,81,30.15,10.0,WSW,10.4,-,N/A,,Overcast,240,2013-10-25 09:15:00
5:35 AM,35.6,30.2,81,30.15,10.0,WSW,10.4,-,N/A,,Overcast,240,2013-10-25 09:35:00
5:55 AM,35.6,30.2,81,30.16,10.0,WSW,10.4,-,N/A,,Overcast,240,2013-10-25 09:55:00
6:15 AM,35.6,30.2,81,30.17,10.0,WSW,8.1,-,N/A,,Overcast,240,2013-10-25 10:15:00
6:35 AM,33.8,30.2,87,30.17,10.0,WSW,9.2,-,N/A,,Overcast,240,2013-10-25 10:35:00
6:55 AM,33.8,30.2,87,30.18,10.0,WSW,9.2,-,N/A,,Overcast,250,2013-10-25 10:55:00
7:15 AM,33.8,30.2,87,30.19,10.0,WSW,8.1,-,N/A,,Mostly Cloudy,240,2013-10-25 11:15:00
7:35 AM,33.8,30.2,87,30.19,10.0,West,5.8,-,N/A,,Mostly Cloudy,260,2013-10-25 11:35:00
7:55 AM,33.8,30.2,87,30.20,10.0,WSW,9.2,-,N/A,,Mostly Cloudy,250,2013-10-25 11:55:00
8:15 AM,33.8,30.2,87,30.21,10.0,WSW,6.9,-,N/A,,Scattered Clouds,240,2013-10-25 12:15:00
8:35 AM,33.8,30.2,87,30.22,10.0,WSW,6.9,-,N/A,,Mostly Cloudy,250,2013-10-25 12:35:00
8:55 AM,35.6,30.2,81,30.23,10.0,WSW,8.1,-,N/A,,Scattered Clouds,250,2013-10-25 12:55:00
9:15 AM,35.6,32.0,87,30.24,10.0,WSW,10.4,-,N/A,,Partly Cloudy,240,2013-10-25 13:15:00
9:35 AM,37.4,32.0,81,30.24,10.0,West,9.2,-,N/A,,Clear,260,2013-10-25 13:35:00
9:55 AM,39.2,32.0,75,30.25,10.0,West,12.7,17.3,N/A,,Clear,260,2013-10-25 13:55:00
10:15 AM,41.0,32.0,70,30.25,10.0,West,9.2,-,N/A,,Partly Cloudy,270,2013-10-25 14:15:00
10:35 AM,42.8,32.0,66,30.25,10.0,West,9.2,-,N/A,,Mostly Cloudy,270,2013-10-25 14:35:00
10:55 AM,42.8,32.0,66,30.26,10.0,WNW,9.2,-,N/A,,Mostly Cloudy,290,2013-10-25 14:55:00
11:15 AM,42.8,30.2,61,30.27,10.0,WNW,10.4,17.3,N/A,,Overcast,290,2013-10-25 15:15:00
11:35 AM,42.8,32.0,66,30.27,10.0,West,11.5,18.4,N/A,,Mostly Cloudy,280,2013-10-25 15:35:00
11:55 AM,42.8,28.4,57,30.27,10.0,West,13.8,20.7,N/A,,Scattered Clouds,270,2013-10-25 15:55:00
12:15 PM,42.8,28.4,57,30.26,10.0,WNW,9.2,-,N/A,,Scattered Clouds,290,2013-10-25 16:15:00
12:35 PM,46.4,30.2,53,30.26,10.0,West,12.7,-,N/A,,Overcast,260,2013-10-25 16:35:00
12:55 PM,46.4,30.2,53,30.25,10.0,West,10.4,17.3,N/A,,Scattered Clouds,270,2013-10-25 16:55:00
1:15 PM,42.8,26.6,53,30.25,10.0,WSW,13.8,-,N/A,,Scattered Clouds,250,2013-10-25 17:15:00
1:35 PM,46.4,28.4,50,30.25,10.0,West,16.1,21.9,N/A,,Clear,260,2013-10-25 17:35:00
1:55 PM,42.8,24.8,49,30.24,10.0,West,13.8,21.9,N/A,,Mostly Cloudy,270,2013-10-25 17:55:00
2:15 PM,44.6,28.4,53,30.24,10.0,West,12.7,16.1,N/A,,Overcast,260,2013-10-25 18:15:00
2:35 PM,41.0,24.8,53,30.24,10.0,West,9.2,-,N/A,,Overcast,280,2013-10-25 18:35:00
2:55 PM,41.0,26.6,57,30.25,10.0,West,10.4,16.1,N/A,,Overcast,280,2013-10-25 18:55:00
3:15 PM,42.8,28.4,57,30.25,10.0,WSW,11.5,18.4,N/A,,Overcast,250,2013-10-25 19:15:00
3:35 PM,42.8,28.4,57,30.25,10.0,West,13.8,24.2,N/A,,Overcast,280,2013-10-25 19:35:00
3:55 PM,39.2,28.4,65,30.25,10.0,West,9.2,16.1,N/A,,Overcast,270,2013-10-25 19:55:00
4:15 PM,42.8,30.2,61,30.25,10.0,West,10.4,16.1,N/A,,Overcast,270,2013-10-25 20:15:00
4:35 PM,42.8,28.4,57,30.25,10.0,West,10.4,-,N/A,,Overcast,280,2013-10-25 20:35:00
4:55 PM,39.2,30.2,70,30.26,10.0,West,9.2,-,N/A,,Overcast,260,2013-10-25 20:55:00
5:15 PM,41.0,30.2,65,30.25,10.0,West,5.8,-,N/A,,Overcast,260,2013-10-25 21:15:00
5:35 PM,41.0,28.4,61,30.25,10.0,WSW,3.5,-,N/A,,Mostly Cloudy,250,2013-10-25 21:35:00
5:55 PM,39.2,30.2,70,30.25,10.0,WSW,4.6,-,N/A,,Overcast,250,2013-10-25 21:55:00
6:15 PM,39.2,30.2,70,30.25,10.0,Calm,Calm,-,N/A,,Overcast,0,2013-10-25 22:15:00
6:35 PM,39.2,28.4,65,30.24,10.0,Calm,Calm,-,N/A,,Mostly Cloudy,0,2013-10-25 22:35:00
6:55 PM,37.4,28.4,70,30.24,10.0,WSW,3.5,-,N/A,,Scattered Clouds,250,2013-10-25 22:55:00
7:15 PM,37.4,28.4,70,30.24,10.0,SW,3.5,-,N/A,,Clear,220,2013-10-25 23:15:00
7:35 PM,37.4,28.4,70,30.24,10.0,SW,3.5,-,N/A,,Clear,220,2013-10-25 23:35:00
7:55 PM,35.6,26.6,70,30.24,10.0,SW,4.6,-,N/A,,Partly Cloudy,220,2013-10-25 23:55:00
8:15 PM,35.6,24.8,65,30.24,10.0,SSW,3.5,-,N/A,,Partly Cloudy,210,2013-10-26 00:15:00
8:35 PM,33.8,24.8,70,30.24,10.0,SSW,6.9,-,N/A,,Mostly Cloudy,200,2013-10-26 00:35:00
8:55 PM,35.6,24.8,65,30.23,10.0,SSW,6.9,-,N/A,,Overcast,210,2013-10-26 00:55:00
9:15 PM,35.6,26.6,70,30.22,10.0,SSW,9.2,-,N/A,,Overcast,210,2013-10-26 01:15:00
9:35 PM,37.4,26.6,65,30.22,10.0,SSW,8.1,-,N/A,,Overcast,210,2013-10-26 01:35:00
9:55 PM,37.4,26.6,65,30.22,10.0,SSW,6.9,-,N/A,,Overcast,210,2013-10-26 01:55:00
10:15 PM,37.4,26.6,65,30.22,10.0,SW,6.9,-,N/A,,Overcast,220,2013-10-26 02:15:00
10:35 PM,37.4,26.6,65,30.22,10.0,SW,6.9,-,N/A,,Overcast,220,2013-10-26 02:35:00
10:55 PM,35.6,26.6,70,30.22,10.0,SSW,5.8,-,N/A,,Mostly Cloudy,210,2013-10-26 02:55:00
11:15 PM,33.8,26.6,75,30.21,10.0,SSW,5.8,-,N/A,,Partly Cloudy,200,2013-10-26 03:15:00
11:35 PM,33.8,24.8,70,30.21,10.0,SSW,6.9,-,N/A,,Clear,200,2013-10-26 03:35:00
11:55 PM,33.8,26.6,75,30.20,10.0,SSW,6.9,-,N/A,,Clear,210,2013-10-26 03:55:00